DW0148 Weather Reports


time (UTC)temp
F
wind
direction
speed
knots
gust
knots
rain 1hr
in
rain 24hr
in
rain mn
in
humidity
%
barometer
mb
20260504160405 69 185 0.9 4.3 0.00 0.00 0.00 55 1014.9
20260504150716 66 200 1.7 4.3 0.00 0.00 0.00 59 1015.9
20260504150214 65 237 0.9 4.3 0.00 0.00 0.00 62 1015.9
20260504141026 60 181 0.0 2.6 0.00 0.00 0.00 72 1016.6
20260504140453 59 276 0.9 2.6 0.00 0.00 0.00 73 1016.6
20260504130338 53 251 0.9 1.7 0.00 0.00 0.00 83 1016.6
20260504120250 44 117 0.0 0.0 0.00 0.00 0.00 95 1016.3
20260504110235 41 117 0.0 0.0 0.00 0.00 0.00 95 1015.9
20260504100147 41 117 0.0 0.0 0.00 0.00 0.00 94 1015.9
20260504081914 42 115 0.0 0.9 0.00 0.00 0.00 93 1015.9
20260504081413 42 115 0.0 0.9 0.00 0.00 0.00 93 1015.9
20260504080910 42 115 0.0 0.9 0.00 0.00 0.00 93 1015.9
20260504080409 42 114 0.0 0.0 0.00 0.00 0.00 92 1015.9
20260504070354 43 115 0.0 0.0 0.00 0.00 0.00 92 1016.3
20260504060132 45 114 0.0 0.9 0.00 0.00 0.00 90 1016.3
20260504050517 45 194 0.0 0.9 0.00 0.00 0.00 90 1016.3
20260504045944 45 194 0.0 0.0 0.00 0.00 0.00 90 1016.3
20260504045442 45 194 0.0 0.0 0.00 0.00 0.00 89 1016.3
20260504044941 45 194 0.0 0.0 0.00 0.00 0.00 89 1016.3
20260504044440 45 194 0.0 0.0 0.00 0.00 0.00 89 1016.3
20260504043938 45 194 0.0 0.0 0.00 0.00 0.00 89 1016.3
20260504043436 45 194 0.0 0.0 0.00 0.00 0.00 88 1016.3
20260504042932 45 194 0.0 0.0 0.00 0.00 0.00 88 1016.3
20260504042432 45 194 0.0 0.0 0.00 0.00 0.00 87 1016.3
20260504041931 46 194 0.0 0.0 0.00 0.00 0.00 86 1016.3
20260504041325 46 194 0.0 0.0 0.00 0.00 0.00 86 1016.3
20260504040824 46 194 0.0 0.0 0.00 0.00 0.00 86 1016.3
20260504040322 46 194 0.0 0.0 0.00 0.00 0.00 85 1016.3
20260504035821 46 194 0.0 0.0 0.00 0.00 0.00 86 1016.3
20260504035317 46 195 0.0 0.0 0.00 0.00 0.00 86 1016.3
20260504034816 46 194 0.0 0.0 0.00 0.00 0.00 86 1016.3
20260504034315 46 194 0.0 0.0 0.00 0.00 0.00 86 1016.3
20260504033813 47 194 0.0 0.0 0.00 0.00 0.00 86 1016.3
20260504033240 47 195 0.0 0.0 0.00 0.00 0.00 86 1016.3
20260504032706 47 194 0.0 0.0 0.00 0.00 0.00 86 1015.9
20260504032205 47 194 0.0 0.0 0.00 0.00 0.00 85 1016.3
20260504031704 47 194 0.0 0.0 0.00 0.00 0.00 85 1015.9
20260504031131 48 194 0.0 0.0 0.00 0.00 0.00 84 1015.9
20260504030528 48 194 0.0 0.0 0.00 0.00 0.00 84 1015.9
20260504030025 48 194 0.0 0.0 0.00 0.00 0.00 84 1015.9
20260504025350 48 194 0.0 0.0 0.00 0.00 0.00 84 1015.9
20260504024817 48 194 0.0 0.0 0.00 0.00 0.00 83 1015.9
20260504024317 49 194 0.0 0.0 0.00 0.00 0.00 84 1015.6
20260504023816 49 194 0.0 0.0 0.00 0.01 0.00 84 1015.6
20260504023315 49 194 0.0 0.0 0.00 0.01 0.00 84 1015.6
20260504022814 49 194 0.0 0.0 0.00 0.01 0.00 84 1015.6
20260504022313 49 194 0.0 0.0 0.00 0.01 0.00 84 1015.6
20260504021812 49 194 0.0 0.0 0.00 0.01 0.00 84 1015.6
20260504021309 49 194 0.0 0.0 0.00 0.01 0.00 84 1015.2
20260504020808 50 194 0.0 0.0 0.00 0.01 0.00 83 1015.2
20260504020307 50 194 0.0 0.0 0.00 0.01 0.00 83 1015.2
20260504015806 50 194 0.0 0.0 0.00 0.01 0.00 83 1015.2
20260504015304 50 194 0.0 0.0 0.00 0.02 0.00 83 1015.2
20260504014803 50 194 0.0 0.0 0.00 0.03 0.00 83 1015.2
20260504014301 51 194 0.0 0.0 0.00 0.04 0.00 82 1015.2
20260504013800 51 194 0.0 0.0 0.00 0.05 0.00 82 1015.2
20260504013259 51 194 0.0 0.0 0.00 0.05 0.00 82 1015.2
20260504012758 51 194 0.0 0.0 0.00 0.05 0.00 82 1015.2
20260504012257 52 194 0.0 0.0 0.00 0.05 0.00 82 1015.2
20260504011756 52 194 0.0 0.0 0.00 0.05 0.00 81 1015.2
20260504011254 53 194 0.0 0.0 0.00 0.05 0.00 81 1015.2
20260504010753 53 194 0.0 0.0 0.00 0.05 0.00 80 1015.2
20260504010252 53 194 0.0 0.0 0.00 0.05 0.00 79 1015.2
20260504005751 54 194 0.0 0.0 0.00 0.05 0.00 78 1015.2
20260504005218 54 194 0.0 0.9 0.00 0.05 0.00 78 1015.2
20260504004717 55 194 0.0 0.9 0.00 0.05 0.00 77 1015.2
20260504004215 56 194 0.0 0.9 0.00 0.05 0.00 76 1014.9
20260504003714 56 194 0.0 0.9 0.00 0.05 0.00 75 1014.9
20260504003213 57 201 0.9 0.9 0.00 0.05 0.00 74 1014.9
20260504002711 57 207 0.0 0.0 0.00 0.05 0.00 72 1014.9
20260504002139 58 209 0.0 0.9 0.00 0.05 0.00 70 1014.9
20260504001637 59 208 0.0 0.9 0.00 0.05 0.00 69 1014.9
20260504001033 59 208 0.0 0.9 0.00 0.05 0.00 67 1014.9
20260504000532 60 208 0.0 0.9 0.00 0.05 0.00 64 1014.9
20260504000031 61 208 0.0 0.9 0.00 0.05 0.00 62 1014.9
20260503235530 61 208 0.0 0.9 0.00 0.05 0.00 58 1014.9
20260503234958 62 208 0.0 0.9 0.00 0.05 0.00 57 1014.9
20260503234354 62 209 0.0 0.9 0.00 0.05 0.00 55 1014.9
20260503233853 63 208 0.0 0.9 0.00 0.05 0.00 54 1014.9
20260503233352 63 208 0.9 0.9 0.00 0.05 0.00 53 1014.9
20260503232849 64 233 0.0 4.3 0.00 0.05 0.00 52 1015.2
20260503232349 64 182 0.9 4.3 0.00 0.05 0.00 50 1015.2
20260503231815 64 212 0.0 5.2 0.00 0.05 0.00 50 1015.2
20260503231314 65 116 1.7 5.2 0.00 0.05 0.00 47 1015.2
20260503230742 65 142 0.9 2.6 0.00 0.05 0.00 47 1015.2
20260503230240 65 255 1.7 2.6 0.00 0.05 0.00 46 1015.2
20260503225739 65 199 0.9 5.2 0.00 0.05 0.00 46 1015.2
20260503225237 65 182 0.9 5.2 0.00 0.05 0.00 45 1015.2
20260503224737 65 282 0.9 5.2 0.00 0.05 0.00 44 1015.2
20260503224236 65 241 2.6 5.2 0.00 0.05 0.00 44 1015.2
20260503223704 65 227 1.7 6.1 0.00 0.05 0.00 44 1015.6
20260503223202 65 205 0.9 7.0 0.00 0.05 0.00 45 1015.6
20260503222701 65 249 0.9 7.0 0.00 0.05 0.00 44 1015.6
20260503222200 65 233 2.6 5.2 0.00 0.05 0.00 44 1015.6
20260503221556 65 230 1.7 5.2 0.00 0.05 0.00 44 1015.6
20260503221055 66 229 0.9 3.5 0.00 0.05 0.00 43 1015.6
20260503220554 66 241 1.7 3.5 0.00 0.05 0.00 44 1015.6
20260503220053 66 145 0.9 3.5 0.00 0.05 0.00 44 1015.9
20260503215552 66 272 1.7 3.5 0.00 0.05 0.00 44 1015.9
20260503215052 66 220 1.7 3.5 0.00 0.05 0.00 44 1015.9
20260503214518 67 250 1.7 5.2 0.00 0.05 0.00 42 1015.9
20260503214017 67 179 0.9 5.2 0.00 0.05 0.00 44 1015.9
20260503213517 67 246 0.9 6.1 0.00 0.05 0.00 41 1015.9
20260503213016 68 243 2.6 6.1 0.00 0.05 0.00 40 1015.9
20260503212514 68 258 1.7 5.2 0.00 0.05 0.00 39 1015.9
20260503212014 68 280 1.7 5.2 0.00 0.05 0.00 39 1016.3
20260503211441 68 141 1.7 2.6 0.00 0.05 0.00 43 1016.3
20260503210940 68 98 1.7 2.6 0.00 0.05 0.00 38 1016.3
20260503210439 69 327 1.7 3.5 0.00 0.05 0.00 39 1016.3
20260503205937 69 229 1.7 4.3 0.00 0.05 0.00 42 1016.3
20260503205435 68 134 0.9 4.3 0.00 0.05 0.00 40 1016.3
20260503204935 68 231 0.9 6.1 0.00 0.05 0.00 41 1016.3
20260503204402 68 316 1.7 6.1 0.00 0.05 0.00 41 1016.3
20260503203901 68 160 0.9 6.1 0.00 0.05 0.00 42 1016.6
20260503203327 67 233 2.6 6.1 0.00 0.05 0.00 41 1016.6
20260503202826 67 86 2.6 7.0 0.00 0.05 0.00 41 1016.6
20260503202325 67 260 1.7 7.0 0.00 0.05 0.00 39 1016.9
20260503201823 67 253 0.9 7.0 0.00 0.05 0.00 40 1016.9
20260503201322 67 242 2.6 7.0 0.00 0.05 0.00 39 1016.9
20260503200821 67 236 0.9 4.3 0.00 0.05 0.00 42 1017.3
20260503200320 67 113 1.7 4.3 0.00 0.05 0.00 43 1017.3
20260503195819 67 41 1.7 5.2 0.00 0.05 0.00 38 1017.3
20260503195317 66 6 0.9 5.2 0.00 0.05 0.00 42 1017.6
20260503194816 66 106 1.7 5.2 0.00 0.05 0.00 39 1017.6
20260503194243 66 86 1.7 5.2 0.00 0.05 0.00 39 1017.6
20260503193742 67 239 1.7 5.2 0.00 0.05 0.00 40 1017.6
20260503193241 67 176 1.7 5.2 0.00 0.05 0.00 43 1017.6
20260503192709 67 15 1.7 6.1 0.00 0.05 0.00 41 1017.9
20260503192208 66 220 2.6 6.1 0.00 0.05 0.00 46 1017.9
20260503191706 66 180 1.7 5.2 0.00 0.05 0.00 43 1017.9
20260503191205 66 211 1.7 5.2 0.00 0.05 0.00 41 1018.3
20260503190705 66 315 1.7 5.2 0.00 0.05 0.00 43 1018.3
20260503190203 66 79 0.9 5.2 0.00 0.05 0.00 45 1018.3
20260503185702 65 192 1.7 5.2 0.00 0.05 0.00 46 1018.3
20260503185201 65 122 1.7 4.3 0.00 0.05 0.00 46 1018.3
20260503184700 64 143 0.9 5.2 0.00 0.05 0.00 48 1018.3
20260503184159 64 218 1.7 5.2 0.00 0.05 0.00 46 1018.6
20260503183555 64 82 0.9 5.2 0.00 0.05 0.00 44 1018.6
20260503183054 64 177 1.7 5.2 0.00 0.05 0.00 45 1018.6
20260503182522 64 224 1.7 4.3 0.00 0.05 0.00 44 1019.0
20260503182021 63 266 0.9 4.3 0.00 0.05 0.00 47 1019.0
20260503181520 63 289 0.9 5.2 0.00 0.05 0.00 46 1019.0
20260503181019 63 190 2.6 6.1 0.00 0.05 0.00 45 1019.0
20260503180518 63 207 1.7 6.1 0.00 0.05 0.00 46 1019.0
20260503180017 63 245 0.9 6.1 0.00 0.05 0.00 46 1019.3
20260503175516 63 204 1.7 4.3 0.00 0.05 0.00 42 1019.3
20260503175015 63 229 0.9 4.3 0.00 0.05 0.00 44 1019.3
20260503174514 62 175 1.7 4.3 0.00 0.05 0.00 44 1019.3
20260503173942 63 176 2.6 4.3 0.00 0.05 0.00 42 1019.6
20260503173410 62 242 0.9 5.2 0.00 0.05 0.00 46 1019.6
20260503172909 62 183 0.9 5.2 0.00 0.05 0.00 46 1019.6
20260503172408 62 153 1.7 5.2 0.00 0.05 0.00 48 1019.6
20260503171907 61 182 2.6 5.2 0.00 0.05 0.00 45 1020.0
20260503171406 61 188 1.7 4.3 0.00 0.05 0.00 44 1020.0
20260503170905 61 213 2.6 4.3 0.00 0.05 0.00 46 1020.0
20260503170404 61 206 0.9 3.5 0.00 0.05 0.00 46 1020.0